Petaluma, CA

4:58 PM PDT on September 26, 2016 (GMT -0700)
Petaluma

Weather History for KO69 - June, 2014

Change the Weather History Date:

Tuesday, June 17, 2014

  Actual Average (KAPC) Record (KAPC)
Temperature  
Mean Temperature 59 °F 65 °F  
Max Temperature 77 °F 79 °F 88 °F (2006)
Min Temperature 41 °F 50 °F 43 °F (2010)
Degree Days  
Heating Degree Days 6    
Month to date heating degree days  
Since 1 June heating degree days  
Since 1 July heating degree days  
Cooling Degree Days 0    
Month to date cooling degree days  
Year to date cooling degree days  
Since 1 June cooling degree days  
Growing Degree Days 9 (Base 50)    
Moisture  
Dew Point 43 °F    
Average Humidity 60    
Maximum Humidity 100    
Minimum Humidity 26    
Precipitation  
Precipitation 0.00 in - 0.00 in (2016)
Month to date precipitation  
Year to date precipitation  
Sea Level Pressure  
Sea Level Pressure 29.94 in    
Wind  
Wind Speed 3 mph (WNW)    
Max Wind Speed 14 mph    
Max Gust Speed 20 mph    
Visibility 9 miles    
Events      
T = Trace of Precipitation, MM = Missing Value Source: NWS Daily Summary

Daily Weather History Graph

Daily Weather History Graph

Search for Another Location

Airport or City:

Trip Planner

Search our weather history database for the weather conditions in past years. The results will help you decide how hot, cold, wet, or windy it might be!

Date:

Astronomy

Jun. 17, 2014 Rise Set
Actual Time 5:46 AM PDT 8:36 PM PDT
Civil Twilight 5:15 AM PDT 9:07 PM PDT
Nautical Twilight 4:35 AM PDT 9:47 PM PDT
Astronomical Twilight 3:50 AM PDT 10:32 PM PDT
Moon No Moon Rise 11:03 AM PDT (6/17)
Length of Visible Light 15h 52m
Length of Day
14h 49m
Waning Gibbous, 72% of the Moon is Illuminated
Jun 17
Waning Gibbous
Jun 19
Last Quarter
Jun 27
New
Jul 5
First Quarter
Jul 12
Full

Hourly Weather History & Observations

Time (PDT) Temp. Windchill Dew Point Humidity Pressure Visibility Wind Dir Wind Speed Gust Speed Precip Events Conditions
12:15 AM 46.4 °F - 44.6 °F 93% 29.88 in 5.0 mi Calm Calm - N/A   Overcast
12:35 AM 46.4 °F - 44.6 °F 93% 29.88 in 7.0 mi Calm Calm - N/A   Mostly Cloudy
12:55 AM 46.4 °F 45.2 °F 44.6 °F 93% 29.88 in 7.0 mi NE 3.5 mph - N/A   Mostly Cloudy
1:15 AM 46.4 °F - 44.6 °F 93% 29.89 in 8.0 mi Calm Calm - N/A   Mostly Cloudy
1:35 AM 44.6 °F - 42.8 °F 93% 29.89 in 8.0 mi Calm Calm - N/A   Scattered Clouds
1:55 AM 44.6 °F - 44.6 °F 100% 29.88 in 8.0 mi Calm Calm - N/A   Scattered Clouds
2:15 AM 44.6 °F - 41.0 °F 87% 29.89 in 8.0 mi Calm Calm - N/A   Scattered Clouds
2:35 AM 42.8 °F - 41.0 °F 93% 29.89 in 8.0 mi Calm Calm - N/A   Scattered Clouds
2:55 AM 42.8 °F - 41.0 °F 93% 29.90 in 8.0 mi Calm Calm - N/A   Mostly Cloudy
3:15 AM 44.6 °F - 42.8 °F 93% 29.90 in 8.0 mi Calm Calm - N/A   Scattered Clouds
3:35 AM 42.8 °F - 42.8 °F 100% 29.90 in 8.0 mi Calm Calm - N/A   Scattered Clouds
3:55 AM 41.0 °F - 41.0 °F 100% 29.90 in 8.0 mi Calm Calm - N/A   Scattered Clouds
4:15 AM 41.0 °F - 41.0 °F 100% 29.91 in 7.0 mi Calm Calm - N/A   Mostly Cloudy
4:35 AM 41.0 °F - 41.0 °F 100% 29.92 in 7.0 mi Calm Calm - N/A   Mostly Cloudy
4:55 AM 41.0 °F - 41.0 °F 100% 29.92 in 7.0 mi Calm Calm - N/A   Scattered Clouds
5:35 AM 41.0 °F - 41.0 °F 100% 29.93 in 8.0 mi Calm Calm - N/A   Clear
5:55 AM 41.0 °F - 41.0 °F 100% 29.93 in 6.0 mi Calm Calm - N/A   Clear
6:15 AM 41.0 °F - 41.0 °F 100% 29.93 in 7.0 mi Calm Calm - N/A   Clear
6:35 AM 44.6 °F - 44.6 °F 100% 29.94 in 7.0 mi Calm Calm - N/A   Clear
6:55 AM 48.2 °F - 44.6 °F 87% 29.94 in 7.0 mi Calm Calm - N/A   Clear
7:15 AM 48.2 °F - 44.6 °F 87% 29.95 in 8.0 mi Calm Calm - N/A   Clear
7:35 AM 51.8 °F - 44.6 °F 76% 29.95 in 9.0 mi Calm Calm - N/A   Clear
7:55 AM 55.4 °F - 44.6 °F 67% 29.95 in 9.0 mi WNW 8.1 mph - N/A   Clear
8:15 AM 59.0 °F - 44.6 °F 59% 29.96 in 10.0 mi West 8.1 mph - N/A   Clear
8:35 AM 59.0 °F - 42.8 °F 55% 29.96 in 10.0 mi WNW 5.8 mph - N/A   Clear
8:55 AM 62.6 °F - 41.0 °F 45% 29.96 in 10.0 mi WNW 10.4 mph - N/A   Clear
9:15 AM 62.6 °F - 42.8 °F 48% 29.96 in 10.0 mi West 8.1 mph - N/A   Clear
9:35 AM 64.4 °F - 42.8 °F 45% 29.97 in 10.0 mi West 9.2 mph - N/A   Clear
9:55 AM 64.4 °F - 44.6 °F 49% 29.97 in 10.0 mi West 4.6 mph - N/A   Clear
10:15 AM 66.2 °F - 42.8 °F 43% 29.97 in 10.0 mi WNW 5.8 mph - N/A   Clear
10:35 AM 68.0 °F - 42.8 °F 40% 29.97 in 10.0 mi WSW 5.8 mph - N/A   Clear
10:55 AM 68.0 °F - 42.8 °F 40% 29.96 in 10.0 mi WSW 8.1 mph - N/A   Clear
11:15 AM 69.8 °F - 44.6 °F 40% 29.96 in 10.0 mi West 4.6 mph - N/A   Clear
11:35 AM 71.6 °F - 42.8 °F 35% 29.97 in 10.0 mi SW 3.5 mph - N/A   Clear
11:55 AM 73.4 °F - 42.8 °F 33% 29.96 in 10.0 mi West 6.9 mph - N/A   Clear
12:15 PM 75.2 °F - 44.6 °F 34% 29.96 in 10.0 mi North - - N/A   Clear
12:35 PM 75.2 °F - 44.6 °F 34% 29.96 in 10.0 mi North - - N/A   Clear
12:55 PM 77.0 °F - 44.6 °F 32% 29.95 in 9.0 mi West 12.7 mph 17.3 mph N/A   Clear
1:15 PM 75.2 °F - 44.6 °F 34% 29.95 in 10.0 mi West 10.4 mph - N/A   Clear
1:35 PM 75.2 °F - 46.4 °F 36% 29.95 in 10.0 mi West 11.5 mph 17.3 mph N/A   Clear
1:55 PM 75.2 °F - 44.6 °F 34% 29.95 in 10.0 mi West 13.8 mph - N/A   Clear
2:15 PM 75.2 °F - 44.6 °F 34% 29.95 in 10.0 mi West 12.7 mph 19.6 mph N/A   Clear
2:35 PM 75.2 °F - 44.6 °F 34% 29.95 in 10.0 mi WSW 11.5 mph - N/A   Clear
2:55 PM 75.2 °F - 44.6 °F 34% 29.95 in 10.0 mi WNW 13.8 mph 17.3 mph N/A   Clear
3:15 PM 75.2 °F - 44.6 °F 34% 29.95 in 10.0 mi WNW 11.5 mph 17.3 mph N/A   Clear
3:35 PM 75.2 °F - 44.6 °F 34% 29.95 in 10.0 mi West 12.7 mph 16.1 mph N/A   Clear
3:55 PM 75.2 °F - 41.0 °F 29% 29.94 in 10.0 mi West 12.7 mph - N/A   Clear
4:15 PM 77.0 °F - 41.0 °F 28% 29.94 in 10.0 mi WSW 11.5 mph - N/A   Clear
4:35 PM 77.0 °F - 39.2 °F 26% 29.94 in 10.0 mi West 12.7 mph 18.4 mph N/A   Clear
4:55 PM 77.0 °F - 39.2 °F 26% 29.94 in 10.0 mi West 12.7 mph 17.3 mph N/A   Clear
5:15 PM 77.0 °F - 39.2 °F 26% 29.94 in 10.0 mi WNW 13.8 mph 18.4 mph N/A   Clear
5:35 PM 75.2 °F - 39.2 °F 27% 29.94 in 10.0 mi West 13.8 mph - N/A   Clear
5:55 PM 73.4 °F - 39.2 °F 29% 29.93 in 10.0 mi WSW 6.9 mph - N/A   Clear
6:15 PM 71.6 °F - 39.2 °F 31% 29.93 in 10.0 mi WNW 8.1 mph - N/A   Clear
6:35 PM 71.6 °F - 41.0 °F 33% 29.93 in 10.0 mi WNW 5.8 mph - N/A   Clear
6:55 PM 71.6 °F - 41.0 °F 33% 29.93 in 10.0 mi WSW 6.9 mph - N/A   Clear
7:15 PM 69.8 °F - 44.6 °F 40% 29.93 in 10.0 mi NW 4.6 mph - N/A   Clear
7:35 PM 68.0 °F - 44.6 °F 43% 29.94 in 10.0 mi Calm Calm - N/A   Clear
7:55 PM 68.0 °F - 44.6 °F 43% 29.93 in 10.0 mi WNW 4.6 mph - N/A   Clear
8:15 PM 66.2 °F - 46.4 °F 49% 29.93 in 10.0 mi Calm Calm - N/A   Clear
8:35 PM 64.4 °F - 44.6 °F 49% 29.93 in 10.0 mi WNW 4.6 mph - N/A   Clear
8:55 PM 60.8 °F - 44.6 °F 55% 29.93 in 9.0 mi NNW 3.5 mph - N/A   Clear
9:15 PM 59.0 °F - 46.4 °F 63% 29.93 in 10.0 mi NNW 3.5 mph - N/A   Clear
9:35 PM 57.2 °F - 46.4 °F 67% 29.94 in 9.0 mi NNW 3.5 mph - N/A   Clear
9:55 PM 55.4 °F - 46.4 °F 72% 29.94 in 9.0 mi NNW 4.6 mph - N/A   Clear
10:15 PM 55.4 °F - 46.4 °F 72% 29.95 in 8.0 mi NNW 3.5 mph - N/A   Clear
10:35 PM 53.6 °F - 46.4 °F 77% 29.95 in 8.0 mi NNW 4.6 mph - N/A   Partly Cloudy
11:15 PM 53.6 °F - 46.4 °F 77% 29.95 in 7.0 mi Calm Calm - N/A   Partly Cloudy
11:35 PM 53.6 °F - 48.2 °F 82% 29.95 in 6.0 mi NW 3.5 mph - N/A   Mostly Cloudy
11:55 PM 50.0 °F - 48.2 °F 94% 29.95 in 5.0 mi Calm Calm - N/A   Mostly Cloudy